Retour au catalogue

USA 274

ActifMilitaireLEO
NORAD 42058·PAYLOAD·🇺🇸 United States

Lancé Mar 1, 2017 depuis Vandenberg Space Force Base

Loading…

Prochains Passages (prochaines 24 heures)

TLE

PériméSource: Mike McCants

Époque: Sep 7, 2026, 00:22 UTC

1 42058U 17011A   26250.01527827 0.00000000  00000-0  00000-0 0    09
2 42058  63.4427 303.9404 0172559 359.3333   0.6667 13.41001301    07

Suivez USA 274 en temps réel avec AllMySat

Download on the App Store